星链-30595 (STARLINK-30595 )

导读 | 星芒AI

STARLINK-30595 是 SpaceX Starlink 卫星互联网项目中的一颗低轨卫星,属于第三代星链卫星(v1.5 或 v2 版本)。该卫星于2023年发射,运行在约550公里高度的近地轨道,旨在为全球用户提供高速、低延迟的互联网服务。它采用先进推进系统和激光通信技术,支持更高效的星座联网。作为Starlink星座的一部分,STARLINK-30595有助于扩大覆盖范围,提升网络性能,服务于偏远地区及商业用户。

基本信息
目录编号:
58111
目录名称:
STARLINK-30595
国际标识:
2023-161Q
轨道中心:
EARTH
卫星名称:
星链-30595
卫星全名:
星链-30595 (STARLINK-30595 )
卫星状态:
在轨 (已飞行791 天)
发射日期:
2023-10-21 UTC
国别 :
美国 (US)
星等 :
--
轨道信息
数据来源 国际轨道数据
星历时间: 2025-12-20T05:37:34+0800
11小时前
查看轨道信息
半长轴: 6853.365km
偏心率: 0.0001463
轨道倾角: 53.159°
近地点辐角 87.993°
升交点赤经 176.285°
平近点角 272.123°
近地点: 474.225km
远地点: 476.231km
周期: 94.106分钟
每日圈数: 15.30196
详细信息
固有亮度:
5
最大亮度:
0.3
卫星平台:
Starlink v2.0 mini
覆盖范围:
全球
运营商:
太空探索技术公司
运营商所在国:
美国
制造商(研发单位):
太空探索技术公司
制造商所在国:
美国
使用方式:
暂无
卫星简介
星链(Starlink)计划是由太空探索技术公司(SpaceX)提出的一个巨型低轨卫星互联网星座项目,计划在2019年至2024年间在太空搭建由约1.2万颗卫星组成的“星链”网络,其中1584颗将部署在地球上空550千米处的近地轨道,并从2020年开始工作。该卫星仍在工作。
2D轨道图
3D轨道图
轨道高度分析图
轨道倾角分析图
轨道综合分析图
查看轨道综合分析图